TimeCEST,TemperatureF,Dew PointF,Humidity,Sea Level PressureIn,VisibilityMPH,Wind Direction,Wind SpeedMPH,Gust SpeedMPH,PrecipitationIn,Events,Conditions,WindDirDegrees,DateUTC
12:55 AM,44.6,39.2,81,30.15,-9999.0,North,3.5,-,N/A,,Clear,10,2012-10-02 22:55:00
1:55 AM,44.6,39.2,81,30.15,-9999.0,North,3.5,-,N/A,,Clear,10,2012-10-02 23:55:00
3:55 AM,44.6,39.2,81,30.15,-9999.0,NNE,2.3,-,N/A,,Clear,30,2012-10-03 01:55:00
4:55 AM,44.6,39.2,81,30.15,-9999.0,North,3.5,-,N/A,,Clear,10,2012-10-03 02:55:00
5:55 AM,44.6,39.2,81,30.15,-9999.0,NNE,3.5,-,N/A,,Clear,20,2012-10-03 03:55:00
6:55 AM,44.6,39.2,81,30.15,-9999.0,NNE,3.5,-,N/A,,Clear,20,2012-10-03 04:55:00
7:55 AM,42.8,39.2,87,30.15,-9999.0,North,4.6,-,N/A,,Clear,10,2012-10-03 05:55:00
8:55 AM,42.8,39.2,87,30.15,-9999.0,North,3.5,-,N/A,,Clear,10,2012-10-03 06:55:00
9:55 AM,46.4,39.2,76,30.15,-9999.0,North,4.6,-,N/A,,Clear,10,2012-10-03 07:55:00
10:55 AM,51.8,37.4,58,30.15,-9999.0,North,3.5,-,N/A,,Clear,360,2012-10-03 08:55:00
11:55 AM,57.2,33.8,41,30.15,6.2,South,8.1,-,N/A,,Partly Cloudy,180,2012-10-03 09:55:00
12:55 PM,59.0,39.2,48,30.15,6.2,SSE,9.2,-,N/A,,Scattered Clouds,150,2012-10-03 10:55:00
1:55 PM,59.0,37.4,45,30.15,6.2,SSE,9.2,-,N/A,,Scattered Clouds,160,2012-10-03 11:55:00
2:55 PM,59.0,42.8,55,30.12,6.2,South,6.9,-,N/A,,Partly Cloudy,180,2012-10-03 12:55:00
3:55 PM,57.2,42.8,59,30.12,6.2,South,9.2,-,N/A,,Scattered Clouds,170,2012-10-03 13:55:00
4:55 PM,57.2,44.6,63,30.09,6.2,SSE,8.1,-,N/A,,Scattered Clouds,160,2012-10-03 14:55:00
5:55 PM,55.4,46.4,72,30.09,6.2,SSE,6.9,-,N/A,,Scattered Clouds,150,2012-10-03 15:55:00
6:55 PM,53.6,46.4,77,30.09,6.2,SE,5.8,-,N/A,,Mostly Cloudy,130,2012-10-03 16:55:00
7:55 PM,53.6,48.2,82,30.09,6.2,SSE,4.6,-,N/A,,Scattered Clouds,160,2012-10-03 17:55:00
8:55 PM,53.6,48.2,82,30.12,6.2,SSW,2.3,-,N/A,,Mostly Cloudy,200,2012-10-03 18:55:00
9:55 PM,55.4,50.0,82,30.09,6.2,SSE,2.3,-,N/A,,Mostly Cloudy,160,2012-10-03 19:55:00
10:55 PM,53.6,48.2,82,30.12,6.2,South,2.3,-,N/A,,Scattered Clouds,190,2012-10-03 20:55:00
11:55 PM,51.8,46.4,82,30.12,6.2,SW,5.8,-,N/A,,Scattered Clouds,220,2012-10-03 21:55:00